Time,TemperatureF,DewpointF,PressureIn,WindDirection,WindDirectionDegrees,WindSpeedMPH,WindSpeedGustMPH,Humidity,HourlyPrecipIn,Conditions,Clouds,dailyrainin,SolarRadiationWatts/m^2,SoftwareType,DateUTC
2013-03-10 00:02:00,39.0,17.0,-100.00,WSW,250,5.0,9.0,41,0.00,,,0.00,0.000000,,2013-03-10 05:02:00,
2013-03-10 00:11:00,39.0,17.0,-100.00,WSW,250,5.0,9.0,41,0.00,,,0.00,0.000000,,2013-03-10 05:11:00,
2013-03-10 00:32:00,38.0,18.0,-100.00,WSW,249,6.0,9.0,44,0.00,,,0.00,0.000000,,2013-03-10 05:32:00,
2013-03-10 00:42:00,38.0,18.0,-100.00,WSW,249,6.0,9.0,44,0.00,,,0.00,0.000000,,2013-03-10 05:42:00,
2013-03-10 00:52:00,38.0,18.0,-100.00,WSW,249,6.0,9.0,44,0.00,,,0.00,0.000000,,2013-03-10 05:52:00,
2013-03-10 01:02:00,38.0,18.0,-100.00,WSW,249,6.0,9.0,44,0.00,,,0.00,0.000000,,2013-03-10 06:02:00,
2013-03-10 01:11:00,38.0,18.0,-100.00,WSW,249,6.0,9.0,44,0.00,,,0.00,0.000000,,2013-03-10 06:11:00,
2013-03-10 01:32:00,38.0,17.0,-100.00,WSW,243,7.0,11.0,42,0.00,,,0.00,0.000000,,2013-03-10 06:32:00,
2013-03-10 01:42:00,38.0,17.0,-100.00,WSW,243,7.0,11.0,42,0.00,,,0.00,0.000000,,2013-03-10 06:42:00,
2013-03-10 01:52:00,38.0,17.0,-100.00,WSW,243,7.0,11.0,42,0.00,,,0.00,0.000000,,2013-03-10 06:52:00,
2013-03-10 03:02:00,38.0,17.0,-100.00,WSW,243,7.0,11.0,42,0.00,,,0.00,0.000000,,2013-03-10 07:02:00,
2013-03-10 03:11:00,38.0,17.0,-100.00,WSW,243,7.0,11.0,42,0.00,,,0.00,0.000000,,2013-03-10 07:11:00,
2013-03-10 03:32:00,37.0,17.0,-100.00,WSW,245,8.0,11.0,43,0.00,,,0.00,0.000000,,2013-03-10 07:32:00,
2013-03-10 03:42:00,37.0,17.0,-100.00,WSW,245,8.0,11.0,43,0.00,,,0.00,0.000000,,2013-03-10 07:42:00,
2013-03-10 03:52:00,37.0,17.0,-100.00,WSW,245,8.0,11.0,43,0.00,,,0.00,0.000000,,2013-03-10 07:52:00,
2013-03-10 04:02:00,37.0,17.0,-100.00,WSW,245,8.0,11.0,43,0.00,,,0.00,0.000000,,2013-03-10 08:02:00,
2013-03-10 04:11:00,37.0,17.0,-100.00,WSW,245,8.0,11.0,43,0.00,,,0.00,0.000000,,2013-03-10 08:11:00,
2013-03-10 04:42:00,36.0,16.0,-100.00,WSW,248,8.0,12.0,44,0.00,,,0.00,0.000000,,2013-03-10 08:42:00,
2013-03-10 04:52:00,36.0,16.0,-100.00,WSW,248,8.0,12.0,44,0.00,,,0.00,0.000000,,2013-03-10 08:52:00,
2013-03-10 05:02:00,36.0,16.0,-100.00,WSW,248,8.0,12.0,44,0.00,,,0.00,0.000000,,2013-03-10 09:02:00,
2013-03-10 05:11:00,36.0,16.0,-100.00,WSW,248,8.0,12.0,44,0.00,,,0.00,0.000000,,2013-03-10 09:11:00,
2013-03-10 05:42:00,38.0,17.0,-100.00,WSW,255,9.0,14.0,42,0.00,,,0.00,0.000000,,2013-03-10 09:42:00,
2013-03-10 05:52:00,38.0,17.0,-100.00,WSW,255,9.0,14.0,42,0.00,,,0.00,0.000000,,2013-03-10 09:52:00,
2013-03-10 06:02:00,38.0,17.0,-100.00,WSW,255,9.0,14.0,42,0.00,,,0.00,0.000000,,2013-03-10 10:02:00,
2013-03-10 06:11:00,38.0,17.0,-100.00,WSW,255,9.0,14.0,42,0.00,,,0.00,0.000000,,2013-03-10 10:11:00,
2013-03-10 06:42:00,38.0,15.0,-100.00,WSW,248,9.0,12.0,39,0.00,,,0.00,0.000000,,2013-03-10 10:42:00,
2013-03-10 06:52:00,38.0,15.0,-100.00,WSW,248,9.0,12.0,39,0.00,,,0.00,0.000000,,2013-03-10 10:52:00,
2013-03-10 07:02:00,38.0,15.0,-100.00,WSW,248,9.0,12.0,39,0.00,,,0.00,0.000000,,2013-03-10 11:02:00,
2013-03-10 07:12:00,38.0,15.0,-100.00,WSW,248,9.0,12.0,39,0.00,,,0.00,0.000000,,2013-03-10 11:12:00,
2013-03-10 09:42:00,39.0,17.0,-100.00,WSW,247,10.0,17.0,41,-99.99,,,0.00,51.000000,,2013-03-10 13:42:00,
2013-03-10 09:52:00,39.0,17.0,-100.00,WSW,247,10.0,17.0,41,-99.99,,,0.00,51.000000,,2013-03-10 13:52:00,
2013-03-10 10:02:00,39.0,17.0,-100.00,WSW,247,10.0,17.0,41,-99.99,,,0.00,51.000000,,2013-03-10 14:02:00,
2013-03-10 10:11:00,39.0,17.0,-100.00,WSW,247,10.0,17.0,41,-99.99,,,0.00,51.000000,,2013-03-10 14:11:00,
2013-03-10 10:42:00,43.0,19.0,-100.00,WSW,250,11.0,17.0,37,0.00,,,0.00,211.000000,,2013-03-10 14:42:00,
2013-03-10 10:52:00,43.0,19.0,-100.00,WSW,250,11.0,17.0,37,0.00,,,0.00,211.000000,,2013-03-10 14:52:00,
2013-03-10 11:01:00,43.0,19.0,-100.00,WSW,250,11.0,17.0,37,0.00,,,0.00,211.000000,,2013-03-10 15:01:00,
2013-03-10 11:11:00,43.0,19.0,-100.00,WSW,250,11.0,17.0,37,0.00,,,0.00,211.000000,,2013-03-10 15:11:00,
2013-03-10 11:42:00,47.0,18.0,-100.00,WSW,256,14.0,22.0,31,0.00,,,0.00,495.000000,,2013-03-10 15:42:00,
2013-03-10 11:52:00,47.0,18.0,-100.00,WSW,256,14.0,22.0,31,0.00,,,0.00,495.000000,,2013-03-10 15:52:00,
2013-03-10 12:02:00,47.0,18.0,-100.00,WSW,256,14.0,22.0,31,0.00,,,0.00,495.000000,,2013-03-10 16:02:00,
2013-03-10 12:12:00,47.0,18.0,-100.00,WSW,256,14.0,22.0,31,0.00,,,0.00,495.000000,,2013-03-10 16:12:00,
2013-03-10 12:42:00,51.0,19.0,-100.00,WSW,252,12.0,21.0,28,0.00,,,0.00,523.000000,,2013-03-10 16:42:00,
2013-03-10 12:52:00,51.0,19.0,-100.00,WSW,252,12.0,21.0,28,0.00,,,0.00,523.000000,,2013-03-10 16:52:00,
2013-03-10 13:01:00,51.0,19.0,-100.00,WSW,252,12.0,21.0,28,0.00,,,0.00,523.000000,,2013-03-10 17:01:00,
2013-03-10 13:11:00,51.0,19.0,-100.00,WSW,252,12.0,21.0,28,0.00,,,0.00,523.000000,,2013-03-10 17:11:00,
2013-03-10 14:42:00,53.0,22.0,-100.00,WSW,253,10.0,19.0,29,-99.99,,,0.00,419.000000,,2013-03-10 18:42:00,
2013-03-10 14:52:00,53.0,22.0,-100.00,WSW,253,10.0,19.0,29,-99.99,,,0.00,419.000000,,2013-03-10 18:52:00,
2013-03-10 15:02:00,53.0,22.0,-100.00,WSW,253,10.0,19.0,29,-99.99,,,0.00,419.000000,,2013-03-10 19:02:00,
2013-03-10 15:11:00,53.0,22.0,-100.00,WSW,253,10.0,19.0,29,-99.99,,,0.00,419.000000,,2013-03-10 19:11:00,
2013-03-10 15:42:00,56.0,22.0,-100.00,WSW,251,11.0,18.0,26,0.00,,,0.00,597.000000,,2013-03-10 19:42:00,
2013-03-10 15:53:00,56.0,22.0,-100.00,WSW,251,11.0,18.0,26,0.00,,,0.00,597.000000,,2013-03-10 19:53:00,
2013-03-10 16:02:00,56.0,22.0,-100.00,WSW,251,11.0,18.0,26,0.00,,,0.00,597.000000,,2013-03-10 20:02:00,
2013-03-10 16:12:00,56.0,22.0,-100.00,WSW,251,11.0,18.0,26,0.00,,,0.00,597.000000,,2013-03-10 20:12:00,
2013-03-10 16:33:00,56.0,23.0,-100.00,WSW,242,10.0,18.0,27,0.00,,,0.00,516.000000,,2013-03-10 20:33:00,
2013-03-10 16:43:00,56.0,23.0,-100.00,WSW,242,10.0,18.0,27,0.00,,,0.00,516.000000,,2013-03-10 20:43:00,
2013-03-10 16:53:00,56.0,23.0,-100.00,WSW,242,10.0,18.0,27,0.00,,,0.00,516.000000,,2013-03-10 20:53:00,
2013-03-10 17:02:00,56.0,23.0,-100.00,WSW,242,10.0,18.0,27,0.00,,,0.00,516.000000,,2013-03-10 21:02:00,
2013-03-10 17:12:00,56.0,23.0,-100.00,WSW,242,10.0,18.0,27,0.00,,,0.00,516.000000,,2013-03-10 21:12:00,
2013-03-10 17:33:00,56.0,22.0,-100.00,WSW,252,12.0,20.0,26,0.00,,,0.00,355.000000,,2013-03-10 21:33:00,
2013-03-10 17:43:00,56.0,22.0,-100.00,WSW,252,12.0,20.0,26,0.00,,,0.00,355.000000,,2013-03-10 21:43:00,
2013-03-10 17:53:00,56.0,22.0,-100.00,WSW,252,12.0,20.0,26,0.00,,,0.00,355.000000,,2013-03-10 21:53:00,
2013-03-10 18:03:00,56.0,22.0,-100.00,WSW,252,12.0,20.0,26,0.00,,,0.00,355.000000,,2013-03-10 22:03:00,
2013-03-10 18:12:00,56.0,22.0,-100.00,WSW,252,12.0,20.0,26,0.00,,,0.00,355.000000,,2013-03-10 22:12:00,
2013-03-10 18:43:00,52.0,22.0,-100.00,WSW,256,10.0,18.0,30,0.00,,,0.00,120.000000,,2013-03-10 22:43:00,
2013-03-10 18:53:00,52.0,22.0,-100.00,WSW,256,10.0,18.0,30,0.00,,,0.00,120.000000,,2013-03-10 22:53:00,
2013-03-10 19:03:00,52.0,22.0,-100.00,WSW,256,10.0,18.0,30,0.00,,,0.00,120.000000,,2013-03-10 23:03:00,
2013-03-10 19:12:00,52.0,22.0,-100.00,WSW,256,10.0,18.0,30,0.00,,,0.00,120.000000,,2013-03-10 23:12:00,
2013-03-10 19:33:00,50.0,21.0,-100.00,WSW,247,10.0,18.0,31,0.00,,,0.00,35.000000,,2013-03-10 23:33:00,
2013-03-10 19:43:00,50.0,21.0,-100.00,WSW,247,10.0,18.0,31,0.00,,,0.00,35.000000,,2013-03-10 23:43:00,
2013-03-10 19:53:00,50.0,21.0,-100.00,WSW,247,10.0,18.0,31,0.00,,,0.00,35.000000,,2013-03-10 23:53:00,
2013-03-10 20:03:00,50.0,21.0,-100.00,WSW,247,10.0,18.0,31,0.00,,,0.00,35.000000,,2013-03-11 00:03:00,
2013-03-10 20:13:00,50.0,21.0,-100.00,WSW,247,10.0,18.0,31,0.00,,,0.00,35.000000,,2013-03-11 00:13:00,
2013-03-10 20:43:00,49.0,20.0,-100.00,WSW,250,12.0,21.0,32,0.00,,,0.00,0.000000,,2013-03-11 00:43:00,
2013-03-10 20:53:00,49.0,20.0,-100.00,WSW,250,12.0,21.0,32,0.00,,,0.00,0.000000,,2013-03-11 00:53:00,
2013-03-10 21:03:00,49.0,20.0,-100.00,WSW,250,12.0,21.0,32,0.00,,,0.00,0.000000,,2013-03-11 01:03:00,
2013-03-10 21:13:00,49.0,20.0,-100.00,WSW,250,12.0,21.0,32,0.00,,,0.00,0.000000,,2013-03-11 01:13:00,
2013-03-10 21:43:00,48.0,22.0,-100.00,WSW,247,13.0,18.0,35,0.00,,,0.00,0.000000,,2013-03-11 01:43:00,
2013-03-10 21:53:00,48.0,22.0,-100.00,WSW,247,13.0,18.0,35,0.00,,,0.00,0.000000,,2013-03-11 01:53:00,
2013-03-10 22:03:00,48.0,22.0,-100.00,WSW,247,13.0,18.0,35,0.00,,,0.00,0.000000,,2013-03-11 02:03:00,
2013-03-10 22:12:00,48.0,22.0,-100.00,WSW,247,13.0,18.0,35,0.00,,,0.00,0.000000,,2013-03-11 02:12:00,
2013-03-10 22:42:00,47.0,20.0,-100.00,WSW,257,10.0,21.0,34,0.00,,,0.00,0.000000,,2013-03-11 02:42:00,
2013-03-10 22:53:00,47.0,20.0,-100.00,WSW,257,10.0,21.0,34,0.00,,,0.00,0.000000,,2013-03-11 02:53:00,
2013-03-10 23:02:00,47.0,20.0,-100.00,WSW,257,10.0,21.0,34,0.00,,,0.00,0.000000,,2013-03-11 03:02:00,
2013-03-10 23:12:00,47.0,20.0,-100.00,WSW,257,10.0,21.0,34,0.00,,,0.00,0.000000,,2013-03-11 03:12:00,
2013-03-10 23:32:00,46.0,20.0,-100.00,WSW,239,9.0,17.0,35,0.00,,,0.00,0.000000,,2013-03-11 03:32:00,
2013-03-10 23:43:00,46.0,20.0,-100.00,WSW,239,9.0,17.0,35,0.00,,,0.00,0.000000,,2013-03-11 03:43:00,
2013-03-10 23:53:00,46.0,20.0,-100.00,WSW,239,9.0,17.0,35,0.00,,,0.00,0.000000,,2013-03-11 03:53:00,